| time (UTC) | temp C | wind direction | speed KPH | gust KPH | rain 1hr cm | rain 24hr cm | rain mn cm | humidity % | barometer mb |
| 20260509161906 | 13 | 236 | 12.9 | 35.4 | 0.00 | 0.25 | 0.00 | 83 | 999.0 |
| 20260509161415 | 13 | 299 | 14.5 | 32.2 | 0.00 | 0.25 | 0.00 | 84 | 999.1 |
| 20260509160906 | 13 | 236 | 11.3 | 27.4 | 0.00 | 0.25 | 0.00 | 84 | 999.0 |
| 20260509155906 | 13 | 204 | 9.7 | 20.9 | 0.00 | 0.25 | 0.00 | 84 | 999.2 |
| 20260509155408 | 13 | 253 | 9.7 | 27.4 | 0.00 | 0.25 | 0.00 | 84 | 999.2 |
| 20260509154907 | 12 | 214 | 11.3 | 32.2 | 0.00 | 0.25 | 0.00 | 84 | 999.2 |
| 20260509153408 | 12 | 223 | 11.3 | 27.4 | 0.00 | 0.25 | 0.00 | 84 | 999.2 |
| 20260509152907 | 12 | 301 | 9.7 | 24.1 | 0.00 | 0.28 | 0.00 | 84 | 999.4 |
| 20260509151906 | 12 | 209 | 4.8 | 16.1 | 0.00 | 0.28 | 0.00 | 83 | 999.7 |
| 20260509151408 | 12 | 309 | 6.4 | 19.3 | 0.00 | 0.28 | 0.00 | 83 | 999.7 |
| 20260509150907 | 12 | 285 | 11.3 | 32.2 | 0.00 | 0.28 | 0.00 | 83 | 999.7 |
| 20260509150408 | 12 | 223 | 12.9 | 29.0 | 0.00 | 0.28 | 0.00 | 82 | 999.6 |
| 20260509145907 | 12 | 241 | 9.7 | 40.2 | 0.00 | 0.28 | 0.00 | 82 | 999.6 |
| 20260509145408 | 12 | 225 | 12.9 | 32.2 | 0.00 | 0.28 | 0.00 | 83 | 999.6 |
| 20260509144409 | 12 | 175 | 8.0 | 22.5 | 0.00 | 0.28 | 0.00 | 83 | 999.7 |
| 20260509143907 | 12 | 289 | 9.7 | 22.5 | 0.00 | 0.28 | 0.00 | 83 | 999.7 |
| 20260509142906 | 12 | 323 | 8.0 | 19.3 | 0.00 | 0.28 | 0.00 | 84 | 999.7 |
| 20260509142409 | 12 | 287 | 8.0 | 19.3 | 0.00 | 0.28 | 0.00 | 84 | 999.7 |
| 20260509141907 | 12 | 349 | 8.0 | 27.4 | 0.00 | 0.28 | 0.00 | 84 | 999.8 |
| 20260509141408 | 12 | 338 | 8.0 | 22.5 | 0.00 | 0.28 | 0.00 | 84 | 999.8 |
| 20260509140408 | 12 | 346 | 9.7 | 20.9 | 0.00 | 0.28 | 0.00 | 84 | 999.8 |
| 20260509135907 | 12 | 212 | 8.0 | 19.3 | 0.00 | 0.28 | 0.00 | 84 | 1000.0 |
| 20260509135407 | 12 | 223 | 8.0 | 20.9 | 0.00 | 0.28 | 0.00 | 83 | 1000.0 |
| 20260509134408 | 12 | 220 | 8.0 | 19.3 | 0.00 | 0.28 | 0.00 | 83 | 1000.0 |
| 20260509133907 | 12 | 220 | 8.0 | 20.9 | 0.00 | 0.28 | 0.00 | 83 | 1000.0 |
| 20260509133408 | 12 | 229 | 8.0 | 24.1 | 0.00 | 0.28 | 0.00 | 83 | 999.9 |
| 20260509132907 | 12 | 303 | 8.0 | 22.5 | 0.00 | 0.28 | 0.00 | 84 | 1000.0 |
| 20260509132409 | 12 | 269 | 8.0 | 19.3 | 0.00 | 0.28 | 0.00 | 83 | 1000.2 |
| 20260509131906 | 12 | 316 | 4.8 | 19.3 | 0.00 | 0.28 | 0.00 | 83 | 1000.1 |
| 20260509131408 | 12 | 255 | 8.0 | 20.9 | 0.00 | 0.28 | 0.00 | 83 | 1000.2 |
| 20260509130907 | 12 | 313 | 8.0 | 33.8 | 0.00 | 0.28 | 0.00 | 84 | 1000.2 |
| 20260509130409 | 12 | 312 | 8.0 | 20.9 | 0.00 | 0.28 | 0.00 | 84 | 1000.2 |
| 20260509125907 | 12 | 286 | 4.8 | 20.9 | 0.15 | 0.28 | 0.00 | 84 | 1000.2 |
| 20260509125408 | 12 | 206 | 11.3 | 24.1 | 0.15 | 0.28 | 0.00 | 84 | 1000.2 |
| 20260509124907 | 12 | 229 | 4.8 | 19.3 | 0.15 | 0.28 | 0.00 | 84 | 1000.1 |
| 20260509124409 | 12 | 268 | 4.8 | 27.4 | 0.15 | 0.28 | 0.00 | 84 | 1000.1 |
| 20260509123907 | 12 | 281 | 11.3 | 27.4 | 0.15 | 0.28 | 0.00 | 84 | 1000.0 |
| 20260509123408 | 12 | 283 | 9.7 | 22.5 | 0.15 | 0.28 | 0.00 | 84 | 1000.1 |
| 20260509122906 | 12 | 256 | 4.8 | 19.3 | 0.15 | 0.28 | 0.00 | 85 | 1000.3 |
| 20260509122409 | 12 | 228 | 9.7 | 19.3 | 0.15 | 0.28 | 0.00 | 85 | 1000.4 |
| 20260509121907 | 12 | 221 | 8.0 | 24.1 | 0.15 | 0.28 | 0.00 | 85 | 1000.4 |
| 20260509121408 | 12 | 270 | 8.0 | 25.7 | 0.15 | 0.28 | 0.00 | 85 | 1000.4 |
| 20260509120907 | 12 | 206 | 11.3 | 25.7 | 0.15 | 0.28 | 0.00 | 85 | 1000.5 |
| 20260509120408 | 12 | 213 | 9.7 | 22.5 | 0.15 | 0.28 | 0.00 | 84 | 1000.5 |
| 20260509115907 | 12 | 221 | 11.3 | 29.0 | 0.00 | 2.77 | 0.15 | 84 | 1000.5 |
| 20260509114907 | 12 | 190 | 11.3 | 33.8 | 0.00 | 2.77 | 0.15 | 83 | 1000.4 |
| 20260509114409 | 12 | 208 | 9.7 | 29.0 | 0.00 | 2.77 | 0.15 | 83 | 1000.5 |
| 20260509113907 | 12 | 222 | 11.3 | 19.3 | 0.00 | 2.77 | 0.15 | 83 | 1000.4 |
| 20260509113408 | 12 | 233 | 8.0 | 29.0 | 0.00 | 2.77 | 0.15 | 83 | 1000.5 |
| 20260509112907 | 12 | 214 | 11.3 | 24.1 | 0.00 | 2.77 | 0.15 | 82 | 1000.4 |
| 20260509112407 | 12 | 216 | 9.7 | 24.1 | 0.00 | 2.77 | 0.15 | 82 | 1000.4 |
| 20260509111907 | 12 | 217 | 9.7 | 20.9 | 0.00 | 2.77 | 0.15 | 82 | 1000.5 |
| 20260509111408 | 12 | 205 | 9.7 | 20.9 | 0.00 | 2.77 | 0.15 | 82 | 1000.4 |
| 20260509110407 | 12 | 203 | 12.9 | 32.2 | 0.00 | 2.77 | 0.15 | 81 | 1000.4 |
| 20260509105907 | 12 | 205 | 14.5 | 27.4 | 0.00 | 2.77 | 0.15 | 81 | 1000.4 |
| 20260509105408 | 12 | 210 | 12.9 | 25.7 | 0.00 | 2.77 | 0.15 | 81 | 1000.3 |
| 20260509104907 | 12 | 224 | 12.9 | 29.0 | 0.00 | 2.77 | 0.15 | 81 | 1000.3 |
| 20260509103907 | 12 | 215 | 9.7 | 27.4 | 0.00 | 2.77 | 0.15 | 82 | 1000.4 |
| 20260509102907 | 12 | 282 | 6.4 | 19.3 | 0.00 | 2.77 | 0.15 | 83 | 1000.6 |
| 20260509102407 | 12 | 234 | 8.0 | 22.5 | 0.00 | 2.77 | 0.15 | 83 | 1000.6 |
| 20260509101907 | 12 | 217 | 8.0 | 22.5 | 0.00 | 2.77 | 0.15 | 84 | 1000.7 |
| 20260509101408 | 12 | 239 | 8.0 | 16.1 | 0.00 | 2.77 | 0.15 | 85 | 1000.7 |
| 20260509100906 | 12 | 216 | 8.0 | 16.1 | 0.00 | 2.77 | 0.15 | 85 | 1000.7 |
| 20260509100407 | 12 | 312 | 9.7 | 20.9 | 0.00 | 2.77 | 0.15 | 86 | 1000.8 |
| 20260509095907 | 11 | 229 | 4.8 | 16.1 | 0.00 | 2.77 | 0.15 | 86 | 1000.8 |
| 20260509095407 | 11 | 253 | 6.4 | 19.3 | 0.00 | 2.77 | 0.15 | 86 | 1000.8 |
| 20260509094907 | 11 | 281 | 4.8 | 16.1 | 0.00 | 2.77 | 0.15 | 87 | 1000.7 |
| 20260509094407 | 11 | 341 | 4.8 | 19.3 | 0.00 | 2.77 | 0.15 | 87 | 1000.6 |
| 20260509093908 | 11 | 263 | 8.0 | 24.1 | 0.00 | 2.77 | 0.15 | 87 | 1000.7 |
| 20260509093408 | 11 | 232 | 6.4 | 16.1 | 0.00 | 2.77 | 0.15 | 87 | 1000.7 |
| 20260509092908 | 11 | 291 | 4.8 | 12.9 | 0.00 | 2.77 | 0.15 | 87 | 1000.7 |
| 20260509092408 | 11 | 284 | 6.4 | 14.5 | 0.00 | 2.77 | 0.15 | 87 | 1000.7 |
| 20260509091906 | 11 | 256 | 6.4 | 19.3 | 0.00 | 2.77 | 0.15 | 87 | 1000.6 |
| 20260509091408 | 11 | 262 | 4.8 | 11.3 | 0.00 | 2.77 | 0.15 | 87 | 1000.7 |
| 20260509090907 | 11 | 270 | 4.8 | 14.5 | 0.00 | 2.77 | 0.15 | 87 | 1000.7 |
| 20260509090408 | 12 | 294 | 3.2 | 9.7 | 0.00 | 2.77 | 0.15 | 87 | 1000.7 |
| 20260509085908 | 12 | 298 | 3.2 | 12.9 | 0.00 | 2.77 | 0.15 | 87 | 1000.7 |
| 20260509085408 | 12 | 252 | 3.2 | 16.1 | 0.00 | 2.77 | 0.15 | 87 | 1000.7 |
| 20260509084907 | 12 | 203 | 4.8 | 22.5 | 0.00 | 2.77 | 0.15 | 86 | 1000.7 |
| 20260509084406 | 12 | 218 | 8.0 | 19.3 | 0.00 | 2.77 | 0.15 | 86 | 1000.7 |
| 20260509083906 | 12 | 204 | 11.3 | 24.1 | 0.00 | 2.77 | 0.15 | 86 | 1000.6 |
| 20260509082907 | 12 | 315 | 8.0 | 20.9 | 0.00 | 2.77 | 0.15 | 84 | 1000.4 |
| 20260509082406 | 12 | 219 | 8.0 | 25.7 | 0.00 | 2.77 | 0.15 | 84 | 1000.3 |
| 20260509081907 | 12 | 244 | 6.4 | 19.3 | 0.00 | 2.77 | 0.15 | 84 | 1000.3 |
| 20260509080907 | 12 | 275 | 4.8 | 14.5 | 0.00 | 2.77 | 0.15 | 84 | 1000.4 |
| 20260509080406 | 12 | 228 | 9.7 | 29.0 | 0.00 | 2.77 | 0.15 | 83 | 1000.5 |
| 20260509075406 | 12 | 252 | 8.0 | 19.3 | 0.00 | 2.77 | 0.15 | 83 | 1000.5 |
| 20260509074407 | 12 | 324 | 6.4 | 19.3 | 0.00 | 2.77 | 0.15 | 84 | 1000.4 |
| 20260509073907 | 12 | 227 | 8.0 | 20.9 | 0.00 | 2.77 | 0.15 | 84 | 1000.4 |
| 20260509073407 | 12 | 241 | 8.0 | 19.3 | 0.00 | 2.77 | 0.15 | 84 | 1000.3 |
| 20260509072907 | 12 | 296 | 9.7 | 19.3 | 0.00 | 2.77 | 0.15 | 84 | 1000.3 |
| 20260509072407 | 13 | 236 | 11.3 | 29.0 | 0.00 | 2.77 | 0.15 | 83 | 1000.2 |
| 20260509071406 | 13 | 316 | 12.9 | 24.1 | 0.00 | 2.77 | 0.15 | 82 | 1000.0 |
| 20260509070906 | 13 | 248 | 8.0 | 32.2 | 0.00 | 2.77 | 0.15 | 81 | 999.9 |
| 20260509065907 | 13 | 223 | 9.7 | 29.0 | 0.00 | 2.77 | 0.15 | 81 | 1000.0 |
| 20260509065406 | 13 | 261 | 9.7 | 24.1 | 0.00 | 2.77 | 0.15 | 81 | 1000.1 |
| 20260509064907 | 13 | 233 | 9.7 | 25.7 | 0.00 | 2.77 | 0.15 | 80 | 1000.0 |
| 20260509064406 | 13 | 288 | 9.7 | 20.9 | 0.00 | 2.77 | 0.15 | 79 | 1000.1 |
| 20260509063907 | 13 | 183 | 8.0 | 29.0 | 0.00 | 2.77 | 0.15 | 78 | 1000.2 |
| 20260509063407 | 13 | 337 | 8.0 | 20.9 | 0.00 | 2.77 | 0.15 | 78 | 1000.2 |
| 20260509062907 | 12 | 299 | 8.0 | 19.3 | 0.00 | 2.77 | 0.15 | 79 | 1000.1 |
| 20260509062407 | 12 | 215 | 8.0 | 29.0 | 0.00 | 2.77 | 0.15 | 79 | 1000.1 |
| 20260509061906 | 12 | 233 | 9.7 | 19.3 | 0.00 | 2.77 | 0.15 | 79 | 1000.1 |
| 20260509060907 | 12 | 307 | 8.0 | 20.9 | 0.00 | 2.77 | 0.15 | 78 | 999.9 |
| 20260509060406 | 12 | 212 | 4.8 | 20.9 | 0.00 | 2.77 | 0.15 | 79 | 999.9 |
| 20260509055906 | 12 | 219 | 4.8 | 19.3 | 0.00 | 2.77 | 0.15 | 78 | 999.7 |
| 20260509054907 | 12 | 0 | 3.2 | 19.3 | 0.00 | 2.77 | 0.15 | 79 | 999.6 |
| 20260509054406 | 13 | 230 | 9.7 | 27.4 | 0.00 | 2.79 | 0.15 | 78 | 999.5 |
| 20260509053407 | 13 | 316 | 8.0 | 19.3 | 0.00 | 2.87 | 0.15 | 78 | 999.5 |
| 20260509052906 | 13 | 257 | 6.4 | 27.4 | 0.00 | 2.87 | 0.15 | 78 | 999.6 |
| 20260509052407 | 13 | 234 | 8.0 | 27.4 | 0.03 | 2.90 | 0.15 | 78 | 999.5 |
| 20260509051907 | 13 | 214 | 9.7 | 19.3 | 0.03 | 2.92 | 0.15 | 79 | 999.6 |
| 20260509051407 | 13 | 217 | 8.0 | 19.3 | 0.03 | 2.97 | 0.15 | 79 | 999.5 |
| 20260509050906 | 13 | 288 | 8.0 | 19.3 | 0.03 | 3.02 | 0.15 | 79 | 999.6 |
| 20260509045907 | 13 | 204 | 9.7 | 22.5 | 0.03 | 3.12 | 0.15 | 78 | 999.5 |
| 20260509044906 | 13 | 222 | 11.3 | 24.1 | 0.03 | 3.17 | 0.15 | 77 | 999.5 |
| 20260509044406 | 13 | 231 | 11.3 | 24.1 | 0.03 | 3.20 | 0.15 | 76 | 999.4 |
| 20260509043907 | 13 | 223 | 4.8 | 24.1 | 0.03 | 3.23 | 0.15 | 77 | 999.4 |
| 20260509043406 | 13 | 205 | 12.9 | 29.0 | 0.03 | 3.23 | 0.15 | 76 | 999.3 |
| 20260509042907 | 13 | 207 | 9.7 | 32.2 | 0.03 | 3.25 | 0.15 | 76 | 999.4 |
| 20260509042407 | 13 | 252 | 11.3 | 32.2 | 0.00 | 3.25 | 0.13 | 76 | 999.4 |
| 20260509041907 | 13 | 210 | 9.7 | 27.4 | 0.00 | 3.25 | 0.13 | 76 | 999.4 |
| 20260509041407 | 13 | 232 | 9.7 | 24.1 | 0.00 | 3.25 | 0.13 | 76 | 999.4 |
| 20260509040906 | 14 | 226 | 8.0 | 24.1 | 0.00 | 3.25 | 0.13 | 76 | 999.5 |
| 20260509040408 | 14 | 230 | 11.3 | 33.8 | 0.00 | 3.25 | 0.13 | 76 | 999.4 |
| 20260509035409 | 14 | 247 | 9.7 | 29.0 | 0.00 | 3.25 | 0.13 | 77 | 999.3 |
| 20260509034407 | 14 | 322 | 14.5 | 29.0 | 0.00 | 3.28 | 0.13 | 76 | 999.4 |
| 20260509033908 | 14 | 199 | 16.1 | 35.4 | 0.00 | 3.28 | 0.13 | 76 | 999.4 |
| 20260509032907 | 14 | 233 | 11.3 | 33.8 | 0.00 | 3.33 | 0.13 | 75 | 999.3 |
| 20260509032406 | 14 | 206 | 16.1 | 37.0 | 0.00 | 3.33 | 0.13 | 75 | 999.2 |
| 20260509031407 | 14 | 216 | 19.3 | 40.2 | 0.00 | 3.33 | 0.13 | 76 | 999.2 |
| 20260509030906 | 14 | 219 | 14.5 | 40.2 | 0.00 | 3.33 | 0.13 | 76 | 999.2 |
| 20260509030406 | 14 | 183 | 11.3 | 33.8 | 0.00 | 3.33 | 0.13 | 76 | 999.2 |
| 20260509025406 | 15 | 220 | 14.5 | 33.8 | 0.00 | 3.35 | 0.13 | 76 | 999.3 |
| 20260509024906 | 15 | 198 | 17.7 | 38.6 | 0.00 | 3.38 | 0.13 | 75 | 999.5 |
| 20260509024407 | 15 | 224 | 16.1 | 40.2 | 0.00 | 3.43 | 0.13 | 75 | 999.3 |
| 20260509023907 | 15 | 217 | 14.5 | 35.4 | 0.00 | 3.48 | 0.13 | 75 | 999.3 |
| 20260509022906 | 15 | 230 | 12.9 | 32.2 | 0.00 | 3.53 | 0.13 | 76 | 999.2 |
| 20260509022406 | 15 | 303 | 11.3 | 29.0 | 0.00 | 3.56 | 0.13 | 77 | 999.2 |
| 20260509021406 | 15 | 328 | 16.1 | 46.7 | 0.00 | 3.61 | 0.13 | 79 | 999.2 |
| 20260509020906 | 15 | 329 | 14.5 | 37.0 | 0.00 | 3.61 | 0.13 | 78 | 999.1 |
| 20260509020407 | 15 | 205 | 16.1 | 35.4 | 0.00 | 3.61 | 0.13 | 77 | 999.0 |
| 20260509015407 | 15 | 231 | 9.7 | 25.7 | 0.00 | 3.63 | 0.13 | 76 | 999.0 |
| 20260509014906 | 16 | 338 | 11.3 | 32.2 | 0.00 | 3.63 | 0.13 | 75 | 998.9 |
| 20260509014406 | 16 | 236 | 14.5 | 35.4 | 0.00 | 3.63 | 0.13 | 75 | 998.8 |
| 20260509013906 | 16 | 245 | 11.3 | 33.8 | 0.00 | 3.66 | 0.13 | 77 | 998.9 |
| 20260509013407 | 16 | 262 | 16.1 | 37.0 | 0.00 | 3.66 | 0.13 | 77 | 998.8 |
| 20260509012906 | 16 | 251 | 12.9 | 33.8 | 0.00 | 3.66 | 0.13 | 77 | 998.7 |
| 20260509012406 | 16 | 228 | 14.5 | 33.8 | 0.00 | 3.66 | 0.13 | 76 | 998.7 |
| 20260509011906 | 16 | 244 | 14.5 | 40.2 | 0.00 | 3.66 | 0.13 | 76 | 998.8 |
| 20260509011406 | 16 | 197 | 16.1 | 38.6 | 0.00 | 3.66 | 0.13 | 76 | 998.9 |
| 20260509010906 | 15 | 335 | 11.3 | 32.2 | 0.00 | 3.66 | 0.13 | 78 | 999.0 |
| 20260509005906 | 15 | 254 | 11.3 | 29.0 | 0.00 | 3.66 | 0.13 | 79 | 999.1 |
| 20260509005407 | 15 | 221 | 16.1 | 32.2 | 0.00 | 3.68 | 0.13 | 79 | 999.0 |
| 20260509004907 | 15 | 203 | 16.1 | 33.8 | 0.00 | 3.68 | 0.13 | 79 | 999.0 |
| 20260509004407 | 15 | 215 | 14.5 | 40.2 | 0.00 | 3.68 | 0.13 | 79 | 999.0 |
| 20260509003908 | 15 | 201 | 14.5 | 32.2 | 0.00 | 3.68 | 0.13 | 80 | 999.0 |
| 20260509002906 | 15 | 209 | 16.1 | 32.2 | 0.00 | 3.68 | 0.13 | 81 | 999.2 |
| 20260509001408 | 15 | 195 | 16.1 | 32.2 | 0.00 | 3.68 | 0.13 | 81 | 999.2 |
| 20260509000407 | 15 | 223 | 14.5 | 35.4 | 0.00 | 3.68 | 0.13 | 82 | 999.2 |
| 20260508235906 | 15 | 218 | 16.1 | 37.0 | 0.00 | 3.68 | 0.13 | 83 | 999.1 |
| 20260508235406 | 15 | 327 | 16.1 | 33.8 | 0.00 | 3.68 | 0.13 | 83 | 999.1 |
| 20260508234907 | 15 | 225 | 16.1 | 37.0 | 0.00 | 3.68 | 0.13 | 84 | 999.1 |
| 20260508234407 | 15 | 213 | 17.7 | 37.0 | 0.00 | 3.68 | 0.13 | 85 | 999.1 |
| 20260508233907 | 15 | 279 | 12.9 | 38.6 | 0.00 | 3.68 | 0.13 | 87 | 999.1 |
| 20260508233408 | 15 | 211 | 16.1 | 38.6 | 0.03 | 3.68 | 0.13 | 87 | 999.0 |
| 20260508232907 | 15 | 346 | 14.5 | 33.8 | 0.03 | 3.68 | 0.13 | 88 | 998.9 |
| 20260508232407 | 15 | 276 | 9.7 | 32.2 | 0.03 | 3.68 | 0.13 | 88 | 999.0 |
| 20260508231907 | 15 | 296 | 14.5 | 35.4 | 0.03 | 3.68 | 0.13 | 89 | 999.0 |
| 20260508231408 | 15 | 248 | 11.3 | 24.1 | 0.03 | 3.68 | 0.13 | 89 | 999.1 |
| 20260508230906 | 15 | 221 | 9.7 | 27.4 | 0.03 | 3.68 | 0.13 | 89 | 999.0 |
| 20260508230407 | 15 | 258 | 11.3 | 29.0 | 0.03 | 3.68 | 0.13 | 89 | 999.0 |
| 20260508225409 | 14 | 320 | 9.7 | 24.1 | 0.05 | 3.68 | 0.13 | 89 | 999.0 |
| 20260508224907 | 15 | 308 | 6.4 | 22.5 | 0.05 | 3.68 | 0.13 | 89 | 999.0 |
| 20260508224407 | 15 | 264 | 11.3 | 20.9 | 0.05 | 3.71 | 0.13 | 89 | 998.9 |
| 20260508223907 | 15 | 209 | 12.9 | 35.4 | 0.05 | 3.71 | 0.13 | 88 | 998.8 |
| 20260508223408 | 15 | 243 | 14.5 | 37.0 | 0.03 | 3.68 | 0.10 | 89 | 998.5 |
| 20260508222408 | 15 | 323 | 14.5 | 32.2 | 0.03 | 3.68 | 0.10 | 89 | 998.5 |
| 20260508221907 | 15 | 335 | 14.5 | 35.4 | 0.05 | 3.68 | 0.10 | 89 | 998.4 |
| 20260508221407 | 15 | 341 | 11.3 | 33.8 | 0.05 | 3.68 | 0.10 | 89 | 998.4 |
| 20260508220907 | 14 | 273 | 9.7 | 22.5 | 0.05 | 3.68 | 0.10 | 89 | 998.4 |
| 20260508220407 | 14 | 357 | 8.0 | 19.3 | 0.05 | 3.68 | 0.10 | 89 | 998.3 |
| 20260508215907 | 14 | 252 | 9.7 | 24.1 | 0.05 | 3.68 | 0.10 | 89 | 998.2 |
| 20260508215407 | 14 | 249 | 8.0 | 22.5 | 0.05 | 3.66 | 0.08 | 90 | 998.3 |
| 20260508214906 | 14 | 319 | 8.0 | 25.7 | 0.05 | 3.66 | 0.08 | 90 | 998.2 |
| 20260508213907 | 13 | 285 | 9.7 | 25.7 | 0.05 | 3.71 | 0.08 | 89 | 998.1 |
| 20260508212909 | 14 | 248 | 9.7 | 22.5 | 0.05 | 3.71 | 0.08 | 89 | 998.1 |
| 20260508212407 | 14 | 326 | 6.4 | 22.5 | 0.05 | 3.71 | 0.08 | 90 | 998.1 |
| 20260508211907 | 14 | 352 | 6.4 | 19.3 | 0.05 | 3.68 | 0.05 | 89 | 998.1 |
| 20260508211408 | 14 | 302 | 4.8 | 19.3 | 0.03 | 3.66 | 0.05 | 89 | 998.1 |
| 20260508210907 | 14 | 217 | 4.8 | 14.5 | 0.03 | 3.66 | 0.05 | 89 | 998.0 |
| 20260508205906 | 14 | 290 | 4.8 | 14.5 | 0.03 | 3.66 | 0.05 | 89 | 998.0 |
| 20260508205407 | 14 | 253 | 6.4 | 14.5 | 0.03 | 3.66 | 0.05 | 89 | 998.0 |
| 20260508204907 | 14 | 287 | 4.8 | 19.3 | 0.03 | 3.66 | 0.05 | 88 | 997.9 |
| 20260508203906 | 14 | 291 | 3.2 | 14.5 | 0.00 | 3.63 | 0.03 | 88 | 997.7 |
| 20260508203406 | 14 | 226 | 6.4 | 12.9 | 0.00 | 3.63 | 0.03 | 88 | 997.6 |
| 20260508202906 | 14 | 213 | 3.2 | 12.9 | 0.00 | 3.63 | 0.03 | 88 | 997.5 |
| 20260508202407 | 14 | 306 | 6.4 | 19.3 | 0.00 | 3.63 | 0.03 | 87 | 997.5 |
| 20260508201907 | 14 | 303 | 4.8 | 24.1 | 0.00 | 3.63 | 0.03 | 87 | 997.5 |
| 20260508201407 | 15 | 265 | 4.8 | 19.3 | 0.00 | 3.63 | 0.03 | 86 | 997.5 |
| 20260508200906 | 15 | 239 | 6.4 | 19.3 | 0.00 | 3.63 | 0.03 | 85 | 997.5 |
| 20260508200407 | 15 | 285 | 9.7 | 25.7 | 0.00 | 3.63 | 0.03 | 84 | 997.3 |
| 20260508194906 | 15 | 339 | 16.1 | 32.2 | 0.00 | 3.63 | 0.03 | 84 | 997.2 |
| 20260508194408 | 15 | 345 | 14.5 | 32.2 | 0.00 | 3.63 | 0.03 | 84 | 997.1 |
| 20260508193408 | 15 | 343 | 19.3 | 35.4 | 0.00 | 3.63 | 0.03 | 83 | 996.9 |
| 20260508192408 | 15 | 344 | 19.3 | 37.0 | 0.00 | 3.63 | 0.03 | 83 | 996.8 |
| 20260508191907 | 15 | 339 | 20.9 | 33.8 | 0.00 | 3.63 | 0.03 | 84 | 997.0 |
| 20260508191408 | 15 | 352 | 22.5 | 38.6 | 0.00 | 3.63 | 0.03 | 84 | 996.9 |
| 20260508190906 | 15 | 337 | 20.9 | 37.0 | 0.00 | 3.63 | 0.03 | 84 | 996.8 |
| 20260508190408 | 15 | 353 | 19.3 | 35.4 | 0.00 | 3.63 | 0.03 | 84 | 996.7 |
| 20260508185407 | 15 | 351 | 19.3 | 41.8 | 0.00 | 3.66 | 0.03 | 84 | 996.6 |
| 20260508183906 | 15 | 346 | 20.9 | 37.0 | 0.00 | 3.76 | 0.03 | 84 | 996.7 |
| 20260508183407 | 15 | 340 | 20.9 | 40.2 | 0.00 | 3.81 | 0.03 | 84 | 996.9 |
| 20260508182907 | 15 | 344 | 12.9 | 33.8 | 0.00 | 3.81 | 0.03 | 83 | 996.9 |
| 20260508182406 | 15 | 352 | 16.1 | 32.2 | 0.00 | 3.81 | 0.03 | 82 | 997.0 |
| 20260508181906 | 15 | 349 | 20.9 | 37.0 | 0.00 | 3.84 | 0.03 | 82 | 997.1 |
| 20260508181408 | 15 | 337 | 19.3 | 35.4 | 0.00 | 3.86 | 0.03 | 81 | 997.2 |
| 20260508180408 | 15 | 343 | 16.1 | 32.2 | 0.00 | 3.91 | 0.03 | 83 | 997.3 |
| 20260508175907 | 16 | 332 | 20.9 | 40.2 | 0.00 | 3.94 | 0.03 | 82 | 997.4 |
| 20260508175408 | 16 | 352 | 19.3 | 48.3 | 0.00 | 3.99 | 0.03 | 81 | 997.5 |
| 20260508174906 | 16 | 346 | 17.7 | 38.6 | 0.00 | 4.04 | 0.03 | 81 | 997.5 |
| 20260508174408 | 16 | 352 | 14.5 | 32.2 | 0.00 | 4.09 | 0.03 | 81 | 997.5 |
| 20260508173906 | 16 | 351 | 19.3 | 38.6 | 0.00 | 4.27 | 0.03 | 80 | 997.6 |
| 20260508173408 | 16 | 344 | 22.5 | 40.2 | 0.00 | 4.47 | 0.03 | 81 | 997.6 |
| 20260508172907 | 16 | 353 | 25.7 | 41.8 | 0.00 | 4.47 | 0.03 | 81 | 997.6 |
| 20260508172407 | 15 | 348 | 22.5 | 49.9 | 0.00 | 4.50 | 0.03 | 82 | 997.7 |
| 20260508171907 | 15 | 348 | 19.3 | 32.2 | 0.00 | 4.52 | 0.03 | 82 | 997.7 |
| 20260508171408 | 15 | 344 | 19.3 | 41.8 | 0.00 | 4.55 | 0.03 | 82 | 997.7 |
| 20260508170907 | 15 | 353 | 16.1 | 37.0 | 0.00 | 4.55 | 0.03 | 82 | 997.7 |
| 20260508170407 | 15 | 354 | 20.9 | 40.2 | 0.00 | 4.57 | 0.03 | 82 | 997.7 |
| 20260508165906 | 16 | 352 | 20.9 | 41.8 | 0.00 | 4.60 | 0.03 | 82 | 997.6 |
| 20260508165408 | 16 | 8 | 29.0 | 56.3 | 0.00 | 4.62 | 0.03 | 81 | 997.7 |
| 20260508164906 | 16 | 346 | 14.5 | 32.2 | 0.00 | 4.65 | 0.03 | 80 | 997.5 |
| 20260508164408 | 16 | 356 | 17.7 | 40.2 | 0.00 | 4.67 | 0.03 | 80 | 997.6 |
| 20260508163408 | 16 | 353 | 20.9 | 56.3 | 0.00 | 4.75 | 0.03 | 79 | 997.5 |
| 20260508162907 | 16 | 349 | 24.1 | 41.8 | 0.03 | 4.75 | 0.03 | 81 | 997.4 |